Theta_e
330 329 329 328 327 327 327 327 327 326 326 326 325 324 323 322 322 322 323 322 321 320 322 321 322 323 312 297 300 314 336 333 324 321 311 310 303 300 296 298 299 297 300 302 304 303 302
331 331 331 331 330 329 329 329 328 327 326 326 326 325 323 322 321 321 322 322 320 321 322 323 322 324 306 294 308 325 321 316 316 312 310 309 305 304 298 298 297 298 299 299 300 300 300
333 333 332 332 332 331 331 331 329 328 327 326 326 325 323 322 322 322 322 321 321 321 324 323 321 319 305 299 309 310 318 314 317 314 310 312 309 302 300 297 301 299 295 297 298 298 298
334 334 333 333 333 333 332 332 330 329 328 327 326 325 323 322 321 321 321 320 320 321 322 320 323 311 296 310 312 308 313 308 314 315 315 314 310 305 301 301 298 294 292 288 294 297 298
334 334 334 334 333 333 332 331 330 329 328 327 326 325 322 321 321 321 320 319 319 322 322 324 312 306 300 317 306 305 304 307 308 312 313 316 308 301 300 294 291 290 286 286 291 296 296
334 333 333 332 332 331 331 330 330 329 328 327 326 324 322 321 321 320 318 317 314 314 313 320 317 302 304 299 301 303 301 306 305 309 307 303 299 294 292 291 283 285 286 287 287 294 296
333 332 332 331 330 330 330 330 329 328 327 326 325 324 322 321 320 318 310 297 294 294 295 293 293 300 298 300 303 302 303 305 305 303 297 298 293 289 293 293 291 289 287 287 290 295 293
333 332 331 330 330 329 329 329 328 328 327 326 325 324 321 320 318 313 300 295 293 294 289 298 296 296 299 299 297 301 304 299 298 293 296 295 290 296 296 295 293 291 289 288 292 295 293
332 332 331 330 330 330 329 328 327 326 326 326 325 323 321 318 315 301 296 296 300 299 289 294 298 298 299 300 299 299 301 299 295 292 293 290 294 300 297 294 293 291 289 289 290 293 292
332 332 331 330 330 329 328 326 325 325 324 324 324 322 319 314 302 293 296 300 299 300 286 291 295 301 304 303 298 300 299 299 295 291 292 291 296 295 293 292 293 287 294 294 292 288 283
332 332 331 330 329 328 325 324 323 323 322 322 323 322 314 309 296 295 299 299 299 296 280 294 297 304 297 297 293 296 298 299 292 292 291 289 289 289 290 289 293 289 294 292 292 287 283
332 332 331 329 328 326 324 322 322 322 322 322 322 320 312 303 297 298 299 298 296 287 280 291 292 290 289 290 289 292 293 295 294 290 289 288 291 288 287 290 290 291 289 290 289 286 279
331 331 330 329 327 323 322 322 321 322 322 321 322 319 311 301 298 297 298 293 286 281 291 287 287 288 286 285 286 288 286 284 284 280 280 284 284 286 287 284 288 288 286 278 277 277 278
326 325 323 322 321 321 321 321 321 321 321 321 320 318 312 304 299 300 296 287 280 288 287 290 287 286 283 284 283 284 284 282 283 283 280 278 277 281 285 282 280 282 282 279 274 274 277
320 320 319 319 318 317 317 319 320 321 320 319 315 305 302 302 306 300 292 281 284 287 289 287 286 281 280 282 281 280 280 282 282 282 279 277 278 284 285 285 285 280 277 282 277 279 274
319 319 319 319 319 319 319 319 320 321 320 315 304 303 300 299 302 298 289 288 286 290 289 287 283 286 280 280 279 278 279 283 283 284 282 279 274 280 285 286 285 280 282 277 279 269 272
318 318 317 317 317 317 317 317 318 320 321 310 303 298 296 299 301 291 285 285 289 293 291 287 286 286 283 281 279 279 282 282 284 284 284 281 277 276 282 279 277 278 278 279 279 277 271
316 315 315 315 316 315 315 317 319 319 316 310 299 294 296 299 288 289 285 288 295 289 287 287 285 285 284 283 280 279 279 282 286 285 280 282 279 275 277 281 283 282 279 279 272 272 274
315 316 315 315 314 314 314 316 319 317 312 302 298 294 299 296 284 280 285 287 290 291 289 287 286 288 284 283 282 281 282 288 287 286 281 282 277 272 272 276 280 278 279 280 278 275 268
313 313 314 314 313 313 312 314 319 314 308 303 294 288 290 291 291 286 287 286 287 290 290 289 287 288 285 282 285 281 282 286 288 287 289 285 277 275 271 273 274 273 277 277 274 266 266
311 312 315 313 312 312 312 311 310 309 309 303 294 290 290 282 284 286 288 287 286 286 289 288 285 286 284 280 281 281 283 283 285 287 284 283 276 277 277 277 277 277 277 277 271 272 268
309 309 312 313 312 311 311 310 309 308 307 298 290 288 288 285 285 284 285 284 283 286 287 283 284 285 285 279 282 280 282 281 279 280 279 279 274 276 272 275 277 275 277 277 277 276 274
308 308 308 310 311 311 311 309 308 308 304 294 292 293 292 289 286 283 282 283 285 288 287 287 285 285 283 284 286 284 286 282 281 278 276 276 275 271 267 273 274 271 275 275 275 276 276
307 307 307 308 308 308 308 308 309 309 303 295 290 291 289 283 285 284 285 285 284 286 286 287 287 284 286 288 285 281 280 280 280 279 280 275 274 272 266 271 262 273 277 278 277 278 279
308 305 306 306 306 306 306 306 307 308 308 297 294 293 289 284 287 286 286 286 286 287 287 288 288 289 289 284 277 276 275 276 277 279 278 278 276 266 264 266 271 275 278 279 278 278 284
306 306 305 305 305 305 305 305 305 306 308 299 294 297 293 285 285 289 288 288 285 285 286 288 292 289 286 281 275 269 270 274 273 276 279 278 275 268 262 261 265 274 280 285 284 275 286
304 305 305 304 303 303 304 303 304 304 306 299 296 299 293 285 289 289 286 286 290 287 283 282 283 283 285 275 273 273 272 276 272 273 272 269 265 263 265 261 270 278 281 284 271 272 284
303 303 303 303 303 303 303 302 303 303 302 294 293 298 291 285 288 290 291 288 289 287 279 281 281 281 278 274 274 275 274 275 273 274 274 271 265 262 264 261 266 281 281 276 280 283 285
302 302 302 302 302 302 302 302 302 302 302 299 289 295 298 290 288 292 292 293 292 292 287 285 283 282 282 277 276 278 275 275 274 270 274 271 272 269 270 271 278 283 282 285 284 283 286
Wind_Speed
8 9 9 8 8 9 9 9 10 11 13 15 17 18 19 21 22 23 23 22 22 22 21 19 16 12 4 3 7 0 6 7 5 5 5 4 4 3 1 2 1 3 4 5 7 8 7
8 11 11 10 9 10 11 11 9 11 13 15 17 18 19 20 22 23 24 23 25 23 20 17 11 8 1 3 1 4 6 4 4 4 5 5 6 6 4 3 3 1 4 6 7 7 6
10 10 12 12 10 11 13 12 10 9 12 14 16 18 19 20 22 24 26 26 25 24 19 7 4 2 0 10 3 3 2 2 4 4 5 5 5 4 2 3 1 2 5 8 7 4 5
11 12 13 13 12 12 13 14 12 10 10 13 15 17 18 19 21 24 26 26 23 18 6 3 1 1 6 3 1 2 2 2 2 2 1 4 4 2 3 1 6 3 3 3 5 3 4
10 11 12 12 12 12 12 12 13 11 8 10 13 15 16 19 21 24 28 26 16 1 4 4 2 2 7 6 2 1 1 1 1 3 2 2 4 3 3 4 5 4 6 3 7 1 3
10 10 10 10 9 9 10 11 11 11 9 9 11 12 14 17 21 24 29 24 6 3 1 2 2 2 3 1 4 4 2 2 2 3 2 3 4 3 3 4 7 6 4 4 4 5 10
10 9 9 10 10 10 10 10 10 10 10 9 10 10 12 16 20 24 13 6 9 5 8 4 4 5 4 8 2 4 4 3 3 4 4 1 2 7 12 9 4 2 4 7 4 8 5
10 10 9 9 10 10 10 10 10 11 12 10 9 10 11 15 17 17 5 7 3 4 12 4 6 5 6 3 5 3 4 4 3 5 2 3 8 10 4 3 4 4 4 6 7 9 4
11 10 10 9 9 9 9 10 10 10 10 11 9 8 9 14 16 5 3 3 5 2 4 7 4 3 1 6 1 4 2 2 3 2 3 5 5 6 4 2 3 4 5 5 11 3 3
11 11 11 10 9 9 9 10 11 11 10 10 11 7 8 17 5 4 2 6 3 2 5 7 2 2 3 1 3 3 4 1 2 4 3 6 6 3 3 5 7 3 8 11 7 2 3
12 12 11 10 9 8 8 9 10 11 11 10 9 5 6 8 3 3 5 6 3 3 6 2 1 1 2 3 2 3 2 2 2 2 4 6 2 3 4 5 5 8 1 3 3 4 1
12 13 12 11 10 6 6 8 10 10 10 9 7 3 4 2 2 4 6 5 3 6 9 4 3 4 3 5 4 5 5 7 2 1 1 5 1 3 4 5 3 5 3 3 3 1 3
11 12 13 13 8 2 5 8 10 12 11 9 7 6 4 2 2 4 4 4 6 4 6 3 3 4 2 2 2 4 4 5 1 1 2 3 2 4 4 4 3 6 3 3 3 1 7
9 9 11 10 6 4 7 9 12 14 12 8 6 10 3 2 1 4 3 5 4 4 7 2 2 2 2 4 2 2 3 2 2 2 2 4 4 4 6 2 1 3 2 4 7 3 4
11 10 8 6 4 6 9 13 14 15 11 7 12 2 1 4 5 2 2 2 8 6 2 5 4 1 2 2 1 1 2 4 3 3 8 5 4 2 2 3 2 1 3 1 0 4 2
7 6 5 6 8 9 12 14 16 13 10 13 3 3 3 6 6 3 2 7 6 4 3 2 5 7 6 4 3 3 6 4 4 3 3 4 2 1 1 1 6 4 0 2 2 1 4
8 10 11 11 13 13 15 18 18 13 7 12 3 1 1 5 3 2 5 9 5 6 4 7 7 11 8 6 7 4 3 1 4 1 2 3 1 2 1 6 2 3 2 4 3 1 3
6 7 9 10 12 14 18 21 20 12 16 4 2 2 3 2 3 4 5 7 4 4 2 6 3 5 8 9 8 7 9 3 6 6 5 1 4 2 2 4 5 2 2 4 4 3 2
12 12 9 9 12 14 17 19 13 10 16 5 1 2 2 3 4 3 4 5 5 4 6 4 5 2 4 4 4 3 3 3 4 3 5 6 2 3 2 1 3 2 1 3 3 3 5
12 13 11 7 9 12 15 19 10 19 9 4 3 1 2 2 2 2 2 5 5 3 3 1 3 7 3 2 2 2 2 1 2 0 4 4 1 3 4 3 5 2 4 3 5 3 4
12 16 13 5 7 10 11 12 12 11 11 3 2 1 1 4 5 7 1 3 2 2 3 1 3 9 6 6 5 6 8 2 0 3 3 3 3 3 2 1 3 6 6 6 7 7 5
11 14 15 12 9 8 7 7 7 7 9 4 1 2 2 2 1 3 7 5 6 5 5 5 10 9 12 7 10 7 8 8 7 3 3 2 3 1 2 3 3 8 10 10 12 12 10
9 10 10 12 13 11 12 4 3 4 7 3 1 2 2 3 3 2 5 7 9 4 8 7 11 6 14 12 1 2 11 2 5 7 4 4 5 3 3 3 5 5 7 5 3 5 6
6 7 8 9 10 10 12 14 10 5 4 3 2 3 1 6 6 6 4 8 8 11 13 3 11 12 4 8 5 3 6 7 7 7 4 5 4 3 2 2 2 5 2 4 8 7 7
8 4 4 6 7 8 9 10 13 13 6 3 4 3 3 3 5 7 13 12 6 5 9 9 6 2 10 9 3 3 2 4 4 6 2 1 4 3 4 2 7 6 1 3 2 7 6
9 7 5 5 6 7 8 9 10 16 14 5 3 3 2 1 7 8 5 6 4 4 3 3 4 4 6 2 3 5 4 5 5 4 4 5 6 5 3 5 4 5 4 1 3 4 7
8 7 6 4 5 6 7 8 12 13 18 7 3 5 3 2 1 1 4 4 3 3 2 4 4 3 3 2 2 3 3 2 7 9 6 3 3 5 2 2 8 9 7 2 4 8 8
8 7 7 7 8 9 4 4 6 6 7 4 1 3 3 2 5 7 6 4 2 3 5 5 5 1 3 3 4 3 3 5 3 5 7 8 7 4 3 2 8 5 1 4 6 5 5
9 8 8 8 8 8 6 5 5 5 1 3 1 2 4 3 5 3 5 9 11 13 4 4 2 9 6 4 1 3 2 3 5 4 3 3 8 8 10 9 5 4 4 4 2 6 5
Wind_Direction
299 300 293 292 301 313 321 324 323 330 336 340 343 343 342 340 337 334 330 327 326 321 317 312 305 308 333 353 250 306 100 113 98 116 144 133 123 127 266 249 330 205 268 279 269 291 270
268 274 283 283 288 304 309 311 313 323 333 337 338 339 339 337 332 330 328 325 324 318 317 303 285 293 202 255 112 128 130 127 135 124 157 144 180 187 193 219 173 250 256 270 287 275 250
278 291 300 304 304 300 298 295 298 307 323 330 334 337 338 336 332 329 326 323 323 320 319 317 255 273 73 240 65 356 172 208 177 163 152 188 165 140 152 302 282 276 307 319 273 271 263
275 278 284 288 294 296 298 303 301 305 309 324 329 334 335 333 328 325 320 318 317 317 357 67 125 351 248 280 1 316 160 290 189 196 188 171 153 131 155 191 11 343 56 331 292 350 295
278 284 287 285 291 299 305 315 324 310 313 319 322 324 328 330 326 325 320 320 315 0 110 122 45 82 273 307 102 251 255 223 176 150 217 99 110 138 77 88 0 347 256 245 314 336 328
275 282 288 293 297 303 310 316 321 320 327 312 309 320 327 330 327 328 323 321 296 336 265 214 242 0 292 286 329 334 250 181 190 116 90 95 64 132 71 114 230 216 241 243 251 299 318
275 281 286 292 297 302 308 314 315 306 287 302 307 316 323 329 330 329 337 2 10 353 32 271 297 281 281 300 335 315 320 80 71 61 182 341 150 203 207 199 136 148 213 251 256 270 283
269 273 278 284 293 302 308 310 312 314 311 299 303 312 328 328 331 332 4 58 81 244 307 280 247 261 276 306 312 285 120 146 133 207 78 0 258 233 220 182 203 201 265 269 272 250 174
266 265 266 269 273 282 293 301 307 313 316 309 297 311 332 328 326 28 13 44 312 172 282 307 227 230 268 139 273 310 76 94 113 140 221 177 261 59 154 252 250 247 229 229 249 309 264
260 259 260 263 269 280 294 306 312 315 316 317 310 332 350 332 62 322 35 321 338 135 12 282 6 358 93 175 46 4 14 99 35 226 195 232 271 253 195 221 190 261 236 252 261 48 240
257 253 250 252 253 270 296 314 319 318 318 321 311 296 37 62 285 4 308 327 328 45 338 50 34 288 100 88 254 21 3 35 195 236 113 254 338 305 241 228 160 229 296 256 249 198 228
255 259 251 239 235 255 295 304 302 299 300 304 296 237 128 75 28 258 310 320 55 38 257 349 20 355 44 14 15 319 25 35 103 165 318 247 10 46 299 317 339 325 292 29 30 153 279
258 258 255 239 206 221 287 293 298 300 301 297 281 184 163 142 250 298 327 27 27 169 355 347 348 20 74 317 13 52 39 23 214 293 244 329 48 337 12 327 27 18 77 315 303 218 238
32 41 63 56 62 17 316 305 297 292 292 288 265 164 211 238 132 0 12 43 182 239 263 322 7 337 259 358 346 25 87 173 72 137 166 196 264 10 328 72 293 14 31 175 233 213 268
67 64 54 45 350 352 324 305 294 290 290 270 122 79 144 250 197 5 74 210 218 207 283 344 314 271 303 297 237 327 248 213 192 189 186 168 251 247 51 39 329 326 76 121 101 303 48
48 42 22 358 341 331 320 314 304 301 275 144 119 137 219 330 149 105 124 242 241 234 184 147 204 191 224 219 234 188 186 169 188 206 187 196 257 288 307 168 32 62 206 132 80 253 246
32 19 12 1 352 347 332 319 309 309 250 146 109 165 282 324 145 107 210 220 253 237 180 203 228 250 239 209 203 215 210 260 155 134 112 133 124 323 321 35 32 345 34 51 84 56 209
25 3 351 357 353 348 338 324 312 296 148 117 143 252 313 280 129 178 208 204 226 192 147 262 257 249 236 207 211 215 212 202 162 159 146 138 126 56 326 306 223 155 119 99 136 200 203
12 0 1 352 355 353 351 341 325 157 150 133 187 44 330 326 209 243 276 267 239 226 212 225 254 239 11 188 252 269 167 74 91 119 180 170 156 133 321 351 55 94 120 115 110 80 209
14 1 346 345 360 1 3 18 16 140 49 75 128 201 338 343 355 306 253 250 237 53 294 157 339 4 16 284 334 250 243 212 188 331 165 97 128 196 185 137 127 164 211 140 128 136 218
12 4 356 7 359 359 16 32 49 50 36 75 34 255 84 206 232 234 219 329 303 283 31 118 237 219 202 208 192 225 205 135 333 268 98 131 167 240 272 206 177 209 225 207 191 212 201
5 9 12 357 347 4 16 10 20 28 8 76 18 125 55 251 87 242 195 221 239 220 193 221 236 199 195 200 207 177 181 175 206 127 119 26 136 108 288 324 262 277 257 239 234 251 251
350 356 357 18 25 7 7 357 346 358 36 88 47 3 226 164 161 205 216 205 214 173 219 232 221 207 218 211 288 48 203 181 164 138 135 131 137 119 279 342 312 276 222 180 188 195 207
322 350 354 6 15 17 9 6 359 297 118 120 174 123 158 257 223 216 254 224 228 228 243 222 236 205 211 99 86 63 56 68 72 49 98 126 125 93 176 287 28 248 295 196 231 249 249
314 328 351 358 9 19 11 5 1 339 193 155 155 160 180 257 232 248 249 261 281 291 274 233 211 171 123 142 102 113 13 55 48 47 29 81 116 85 124 177 295 309 87 164 208 294 193
339 305 300 324 351 20 11 3 350 343 287 160 173 163 170 239 248 265 267 228 260 249 237 201 113 147 109 96 98 158 174 165 165 141 65 75 67 110 70 108 232 240 245 195 130 276 246
336 341 333 343 356 5 9 6 7 31 57 81 57 337 87 263 296 302 251 268 198 225 272 133 137 146 358 106 131 157 197 155 169 165 155 85 20 149 162 192 279 246 255 308 97 245 302
320 322 324 318 319 315 347 10 10 33 55 81 156 132 146 195 251 206 218 230 274 212 178 178 118 195 127 198 147 184 168 207 129 144 172 158 140 182 89 117 274 204 162 158 220 282 275
7 354 337 329 327 336 321 330 345 17 79 81 109 211 234 237 251 248 254 252 232 233 169 222 184 161 169 125 195 126 157 169 159 195 71 157 178 177 175 209 237 226 187 233 226 246 281